Location: *
(35.8942°N, 23.3025°E)
Time: 23:38:56
(UTC+00:00)

Cosmos 1745 Rocket - Pass Details

Date: 21 September 2021
Orbit: 951 x 999 km, 83.0° (Epoch: 22 October)

Event Time Altitude Azimuth Distance (km) Brightness Sun altitude
Rises 03:30:52 0° 353° (N) 3,652 7.0 -9.5°
Reaches altitude 10° 03:33:23 10° 353° (N) 2,697 6.3 -9.0°
Maximum altitude 03:39:33 86° 267° (W) 960 4.0 -7.8°
Drops below altitude 10° 03:45:39 10° 177° (S) 2,667 6.3 -6.6°
Sets 03:48:07 0° 177° (S) 3,609 7.0 -6.1°
